EW9227 Weather Reports


Display with metric or nautical units.
time (UTC)temp
F
wind
direction
speed
MPH
gust
MPH
rain 1hr
in
rain 24hr
in
rain mn
in
humidity
%
barometer
mb
20260503203519 57 227 1.0 5.0 0.00 0.00 0.00 78 1013.0
20260503203053 57 264 1.0 5.0 0.00 0.00 0.00 78 1013.2
20260503202520 57 281 1.0 5.0 0.00 0.00 0.00 79 1013.1
20260503202023 57 242 2.0 5.0 0.00 0.00 0.00 78 1013.1
20260503201541 57 0 1.0 3.0 0.00 0.00 0.00 78 1013.2
20260503201018 57 255 1.0 3.0 0.00 0.00 0.00 79 1013.3
20260503200520 57 0 0.0 4.0 0.00 0.00 0.00 79 1013.3
20260503200041 57 0 2.0 4.0 0.00 0.00 0.00 78 1013.2
20260503195519 57 278 1.0 4.0 0.00 0.00 0.00 78 1013.2
20260503195022 56 273 1.0 5.0 0.00 0.00 0.00 80 1013.3
20260503194543 56 235 1.0 5.0 0.00 0.00 0.00 79 1013.4
20260503194020 56 0 2.0 4.0 0.00 0.00 0.00 81 1013.4
20260503193523 57 266 1.0 5.0 0.00 0.00 0.00 80 1013.4
20260503193035 57 250 1.0 5.0 0.00 0.00 0.00 79 1013.2
20260503192519 57 0 2.0 5.0 0.00 0.00 0.00 78 1013.3
20260503192018 58 269 2.0 5.0 0.00 0.00 0.00 77 1013.3
20260503191546 58 0 1.0 4.0 0.00 0.00 0.00 77 1013.3
20260503191019 58 0 1.0 4.0 0.00 0.00 0.00 77 1013.2
20260503190519 58 238 0.0 4.0 0.00 0.00 0.00 77 1013.4
20260503190041 57 0 0.0 4.0 0.00 0.00 0.00 79 1013.4
20260503185519 57 0 0.0 4.0 0.00 0.00 0.00 80 1013.3
20260503185019 57 266 1.0 4.0 0.00 0.00 0.00 79 1013.3
20260503184541 57 245 0.0 3.0 0.00 0.00 0.00 78 1013.4
20260503184019 57 278 0.0 2.0 0.00 0.00 0.00 79 1013.3
20260503183521 57 0 0.0 3.0 0.00 0.00 0.00 80 1013.3
20260503183041 56 0 0.0 3.0 0.00 0.00 0.00 79 1013.3
20260503182519 56 0 0.0 3.0 0.00 0.00 0.00 79 1013.4
20260503182019 56 260 0.0 3.0 0.00 0.00 0.00 79 1013.2
20260503181542 56 239 0.0 3.0 0.00 0.00 0.00 80 1013.2
20260503181018 56 286 0.0 3.0 0.00 0.00 0.00 80 1013.2
20260503180520 56 246 1.0 4.0 0.00 0.00 0.00 80 1013.2
20260503180045 56 0 0.0 4.0 0.00 0.00 0.00 82 1013.1
20260503175518 56 257 0.0 2.0 0.00 0.00 0.00 80 1013.2
20260503175019 56 0 0.0 1.0 0.00 0.00 0.00 81 1013.3
20260503174537 56 0 0.0 0.0 0.00 0.00 0.00 81 1013.3
20260503174018 55 0 0.0 1.0 0.00 0.00 0.00 81 1013.1
20260503173518 55 0 0.0 3.0 0.00 0.00 0.00 82 1013.2
20260503173041 55 270 0.0 3.0 0.00 0.00 0.00 83 1013.2
20260503172518 55 262 0.0 3.0 0.00 0.00 0.00 82 1013.1
20260503172019 55 0 0.0 3.0 0.00 0.00 0.00 82 1013.2
20260503171546 55 0 0.0 3.0 0.00 0.00 0.00 82 1013.0
20260503171022 55 0 0.0 2.0 0.00 0.00 0.00 82 1013.1
20260503170519 55 0 0.0 2.0 0.00 0.00 0.00 82 1013.2
20260503150518 53 0 0.0 0.0 0.00 0.00 0.00 85 1012.6
20260503131023 52 0 0.0 0.0 0.00 0.00 0.00 85 1011.0
20260503130518 52 0 0.0 0.0 0.00 0.00 0.00 85 1011.0
20260503110518 52 0 0.0 2.0 0.00 0.00 0.00 85 1011.2
20260503081543 52 302 0.0 2.0 0.00 0.00 0.00 85 1012.1
20260503081024 52 0 0.0 2.0 0.00 0.00 0.00 85 1012.0
20260503080521 52 0 0.0 2.0 0.00 0.00 0.00 85 1012.0
20260503072522 52 0 0.0 3.0 0.00 0.00 0.00 85 1011.8
20260503072018 52 0 0.0 3.0 0.00 0.00 0.00 85 1011.9
20260503071553 52 292 0.0 1.0 0.00 0.00 0.00 85 1011.9
20260503071021 52 0 0.0 0.0 0.00 0.00 0.00 85 1012.0
20260503070519 52 0 0.0 2.0 0.00 0.00 0.00 85 1012.0
20260503055018 52 0 0.0 3.0 0.00 0.00 0.00 85 1012.3
20260503054550 52 0 0.0 3.0 0.00 0.00 0.00 85 1012.2
20260503054018 52 305 0.0 4.0 0.00 0.00 0.00 85 1012.4
20260503053518 52 0 0.0 4.0 0.00 0.00 0.00 85 1012.4
20260503053036 52 0 0.0 2.0 0.00 0.00 0.00 85 1012.4
20260503052518 52 0 0.0 2.0 0.00 0.00 0.00 85 1012.4
20260503052023 52 0 0.0 2.0 0.00 0.00 0.00 85 1012.4
20260503051541 52 282 0.0 2.0 0.00 0.00 0.00 85 1012.4
20260503051019 52 0 0.0 3.0 0.00 0.00 0.00 85 1012.3
20260503050518 52 0 0.0 3.0 0.00 0.00 0.00 85 1012.3
20260503050042 52 267 0.0 3.0 0.00 0.00 0.00 85 1012.4
20260503045518 52 0 0.0 4.0 0.00 0.00 0.00 85 1012.4
20260503045020 52 271 0.0 4.0 0.00 0.00 0.00 85 1012.4
20260503044540 52 266 0.0 4.0 0.00 0.00 0.00 85 1012.3
20260503044018 52 274 0.0 3.0 0.00 0.00 0.00 85 1012.4
20260503043517 52 0 0.0 3.0 0.00 0.00 0.00 85 1012.3
20260503043040 52 0 0.0 3.0 0.00 0.00 0.00 85 1012.2
20260503042517 52 279 0.0 2.0 0.00 0.00 0.00 85 1012.3
20260503042019 52 0 0.0 2.0 0.00 0.00 0.00 85 1012.3
20260503041543 52 0 0.0 2.0 0.00 0.00 0.00 85 1012.1
20260503041021 52 0 0.0 3.0 0.00 0.00 0.00 85 1012.3
20260503040521 52 307 0.0 3.0 0.00 0.00 0.00 85 1012.2
20260503040050 52 307 0.0 3.0 0.00 0.00 0.00 85 1012.2
20260503035522 52 0 0.0 1.0 0.00 0.00 0.00 85 1012.2
20260503035018 52 0 0.0 1.0 0.00 0.00 0.00 85 1012.0
20260503034541 52 0 0.0 4.0 0.00 0.00 0.00 85 1012.1
20260503034017 52 0 0.0 4.0 0.00 0.00 0.00 85 1012.2
20260503033517 52 286 0.0 4.0 0.00 0.00 0.00 85 1012.1
20260503033041 52 320 0.0 4.0 0.00 0.00 0.00 85 1011.9
20260503032525 52 0 0.0 3.0 0.00 0.00 0.00 85 1011.7
20260503032021 52 0 0.0 3.0 0.00 0.00 0.00 85 1011.7
20260503031541 52 0 0.0 1.0 0.00 0.00 0.00 85 1011.6
20260503031022 52 0 0.0 0.0 0.00 0.00 0.00 85 1011.5
20260503030521 52 0 0.0 2.0 0.00 0.00 0.00 85 1011.6
20260503030046 52 0 0.0 2.0 0.00 0.00 0.00 85 1011.4
20260503025518 52 0 0.0 2.0 0.00 0.00 0.00 85 1011.5
20260503025021 53 0 0.0 3.0 0.00 0.00 0.00 85 1011.5
20260503024535 52 0 0.0 3.0 0.00 0.00 0.00 85 1011.4
20260503024021 52 259 0.0 3.0 0.00 0.00 0.00 85 1011.5
20260503023517 53 0 0.0 2.0 0.00 0.00 0.00 85 1011.4
20260503023039 53 0 0.0 4.0 0.00 0.00 0.00 85 1011.5
20260503022517 53 0 0.0 4.0 0.00 0.00 0.00 85 1011.5
20260503022018 53 266 1.0 4.0 0.00 0.00 0.00 85 1011.5
20260503021541 53 0 0.0 4.0 0.00 0.00 0.00 85 1011.5
20260503021018 53 0 0.0 4.0 0.00 0.00 0.00 85 1011.4
20260503020522 53 281 0.0 4.0 0.00 0.00 0.00 85 1011.5
20260503020041 53 0 0.0 4.0 0.00 0.00 0.00 85 1011.7
20260503015524 53 294 0.0 4.0 0.00 0.00 0.00 85 1011.7
20260503015024 53 306 0.0 3.0 0.00 0.00 0.00 84 1011.6
20260503014542 53 0 0.0 3.0 0.00 0.00 0.00 84 1011.6
20260503014021 54 0 0.0 1.0 0.00 0.00 0.00 84 1011.6
20260503013520 54 0 0.0 3.0 0.00 0.00 0.00 84 1011.7
20260503013039 54 0 0.0 3.0 0.00 0.00 0.00 84 1011.7
20260503012521 54 0 0.0 4.0 0.00 0.00 0.00 83 1011.7
20260503012019 54 0 0.0 4.0 0.00 0.00 0.00 83 1011.9
20260503011542 54 295 0.0 2.0 0.00 0.00 0.00 83 1011.9
20260503011043 54 0 0.0 5.0 0.00 0.00 0.00 83 1011.9
20260503010519 54 0 0.0 5.0 0.00 0.00 0.00 84 1011.9
20260503010041 54 302 1.0 5.0 0.00 0.00 0.00 83 1011.9
20260503005518 54 0 0.0 3.0 0.00 0.00 0.00 83 1011.8
20260503005019 54 0 0.0 2.0 0.00 0.00 0.00 83 1011.9
20260503004541 54 0 0.0 4.0 0.00 0.00 0.00 82 1011.7
20260503004017 54 295 0.0 4.0 0.00 0.00 0.00 82 1011.9
20260503003517 54 0 0.0 5.0 0.00 0.00 0.00 82 1011.9
20260503003040 54 312 2.0 5.0 0.00 0.00 0.00 82 1011.9
20260503002517 55 313 1.0 5.0 0.00 0.00 0.00 81 1011.9
20260503002018 55 0 0.0 3.0 0.00 0.00 0.00 81 1012.1
20260503001551 55 0 0.0 2.0 0.00 0.00 0.00 82 1012.0
20260503001020 55 283 0.0 2.0 0.00 0.00 0.00 81 1011.9
20260503000517 55 0 0.0 4.0 0.00 0.00 0.00 82 1012.1
20260503000036 55 0 0.0 4.0 0.00 0.00 0.00 81 1012.1
20260502235517 55 299 0.0 3.0 0.00 0.00 0.00 81 1012.1
20260502235021 56 307 0.0 4.0 0.00 0.00 0.00 80 1012.1
20260502234540 55 0 0.0 4.0 0.00 0.00 0.00 81 1012.1
20260502234024 56 307 0.0 4.0 0.00 0.00 0.00 80 1012.1
20260502233519 56 0 0.0 5.0 0.00 0.00 0.00 80 1012.1
20260502233045 56 307 0.0 5.0 0.00 0.00 0.00 79 1012.1
20260502232522 56 242 0.0 4.0 0.00 0.00 0.00 79 1012.3
20260502232021 56 0 0.0 4.0 0.00 0.00 0.00 80 1012.3
20260502231540 56 243 0.0 4.0 0.00 0.00 0.00 80 1012.3
20260502231021 55 0 0.0 4.0 0.00 0.00 0.00 80 1012.4
20260502230518 55 309 0.0 4.0 0.00 0.00 0.00 81 1012.5
20260502230040 56 0 1.0 4.0 0.00 0.00 0.00 80 1012.5
20260502225517 56 340 1.0 4.0 0.00 0.00 0.00 80 1012.7
20260502225025 56 0 0.0 4.0 0.00 0.00 0.00 80 1012.7
20260502224537 55 0 0.0 4.0 0.00 0.00 0.00 81 1012.8
20260502224020 55 257 1.0 5.0 0.00 0.00 0.00 81 1012.8
20260502223519 55 257 1.0 5.0 0.00 0.00 0.00 81 1013.0
20260502223037 55 284 1.0 5.0 0.00 0.00 0.00 81 1013.1
20260502222521 55 0 1.0 4.0 0.00 0.00 0.00 81 1013.1
20260502222022 55 226 0.0 4.0 0.00 0.00 0.00 80 1013.2
20260502221543 55 0 0.0 4.0 0.00 0.00 0.00 81 1013.4
20260502221019 55 289 0.0 4.0 0.00 0.00 0.00 81 1013.3
20260502220519 55 0 0.0 5.0 0.00 0.00 0.00 81 1013.4
20260502220043 55 0 1.0 5.0 0.00 0.00 0.00 82 1013.4
20260502215520 55 257 0.0 3.0 0.00 0.00 0.00 81 1013.4
20260502215022 55 0 0.0 3.0 0.00 0.00 0.00 81 1013.4
20260502214542 55 0 0.0 4.0 0.00 0.00 0.00 81 1013.4
20260502214024 55 252 0.0 4.0 0.00 0.00 0.00 80 1013.4
20260502213520 55 278 0.0 4.0 0.00 0.00 0.00 79 1013.3
20260502213042 55 0 0.0 3.0 0.00 0.00 0.00 80 1013.4
20260502212520 55 248 0.0 3.0 0.00 0.00 0.00 80 1013.5
20260502212021 56 266 0.0 2.0 0.00 0.00 0.00 79 1013.6
20260502211537 56 218 0.0 4.0 0.00 0.00 0.00 79 1013.5
20260502211020 55 0 0.0 4.0 0.00 0.00 0.00 79 1013.5
20260502210517 55 257 0.0 5.0 0.00 0.00 0.00 80 1013.6
20260502210036 56 0 0.0 6.0 0.00 0.00 0.00 79 1013.7
20260502205524 56 0 1.0 6.0 0.00 0.00 0.00 79 1013.7
20260502205021 56 0 1.0 5.0 0.00 0.00 0.00 79 1013.8
20260502204549 56 0 0.0 3.0 0.00 0.00 0.00 79 1013.8
20260502204021 56 298 0.0 5.0 0.00 0.00 0.00 79 1013.8